GW4164 Weather Reports


Display with metric or nautical units.
time (UTC)temp
F
wind
direction
speed
MPH
gust
MPH
rain 1hr
in
rain 24hr
in
rain mn
in
humidity
%
barometer
mb
20260503200425 87 294 4.0 7.0 0.00 0.00 0.00 10
20260503195420 85 194 5.0 16.0 0.00 0.00 0.00 10
20260503194418 87 195 6.0 9.0 0.00 0.00 0.00 11
20260503193415 86 188 6.0 13.0 0.00 0.00 0.00 12
20260503192414 85 243 5.0 13.0 0.00 0.00 0.00 14
20260503191413 85 178 2.0 4.0 0.00 0.00 0.00 15
20260503190413 84 271 7.0 13.0 0.00 0.00 0.00 14
20260503185412 84 212 10.0 13.0 0.00 0.00 0.00 15
20260503184408 84 251 4.0 10.0 0.00 0.00 0.00 16
20260503183406 84 60 2.0 3.0 0.00 0.00 0.00 16
20260503182402 82 84 3.0 4.0 0.00 0.00 0.00 17
20260503181402 83 277 2.0 4.0 0.00 0.00 0.00 20
20260503180402 81 62 1.0 6.0 0.00 0.00 0.00 20
20260503175403 81 93 5.0 6.0 0.00 0.00 0.00 20
20260503174402 80 20 3.0 7.0 0.00 0.00 0.00 22
20260503173359 80 85 2.0 3.0 0.00 0.00 0.00 21
20260503172359 79 70 1.0 2.0 0.00 0.00 0.00 21
20260503171358 80 74 1.0 3.0 0.00 0.00 0.00 21
20260503170357 80 81 0.0 4.0 0.00 0.00 0.00 22
20260503150326 71 171 2.0 2.0 0.00 0.00 0.00 34
20260503140314 63 77 1.0 1.0 0.00 0.00 0.00 44
20260503131308 57 44 1.0 3.0 0.00 0.00 0.00 54
20260503130302 57 65 0.0 1.0 0.00 0.00 0.00 51
20260503110241 55 60 1.0 3.0 0.00 0.00 0.00 50
20260503100224 56 41 3.0 3.0 0.00 0.00 0.00 48
20260503090217 60 69 0.0 0.0 0.00 0.00 0.00 44
20260503081208 59 72 0.0 0.0 0.00 0.00 0.00 44
20260503080206 59 79 0.0 0.0 0.00 0.00 0.00 45
20260503072157 60 76 0.0 1.0 0.00 0.00 0.00 44
20260503071156 60 82 0.0 1.0 0.00 0.00 0.00 44
20260503070151 61 74 0.0 0.0 0.00 0.00 0.00 44
20260503060133 66 79 2.0 2.0 0.00 0.00 0.00 39
20260503054129 67 300 2.0 3.0 0.00 0.00 0.00 37
20260503053125 66 61 1.0 1.0 0.00 0.00 0.00 39
20260503052123 65 91 0.0 1.0 0.00 0.00 0.00 39
20260503051123 69 101 2.0 3.0 0.00 0.00 0.00 36
20260503050122 67 130 1.0 2.0 0.00 0.00 0.00 37
20260503045122 67 82 1.0 2.0 0.00 0.00 0.00 37
20260503044122 68 87 1.0 1.0 0.00 0.00 0.00 36
20260503043121 68 76 1.0 1.0 0.00 0.00 0.00 36
20260503042120 68 92 2.0 2.0 0.00 0.00 0.00 35
20260503041115 69 100 1.0 2.0 0.00 0.00 0.00 35
20260503040115 70 108 2.0 3.0 0.00 0.00 0.00 34
20260503035115 70 81 0.0 2.0 0.00 0.00 0.00 33
20260503034115 71 100 1.0 2.0 0.00 0.00 0.00 32
20260503033110 71 121 2.0 2.0 0.00 0.00 0.00 32
20260503032106 72 87 0.0 2.0 0.00 0.00 0.00 31
20260503031101 73 107 1.0 2.0 0.00 0.00 0.00 30
20260503030100 74 39 1.0 4.0 0.00 0.00 0.00 29
20260503025100 74 134 1.0 2.0 0.00 0.00 0.00 29
20260503024059 75 63 2.0 3.0 0.00 0.00 0.00 28
20260503023059 75 279 4.0 7.0 0.00 0.00 0.00 28
20260503022056 76 335 2.0 4.0 0.00 0.00 0.00 27
20260503021056 76 243 3.0 4.0 0.00 0.00 0.00 26
20260503020056 77 293 3.0 9.0 0.00 0.00 0.00 26
20260503015056 77 284 6.0 9.0 0.00 0.00 0.00 25
20260503014055 78 256 4.0 9.0 0.00 0.00 0.00 25
20260503013050 79 100 5.0 7.0 0.00 0.00 0.00 25
20260503012050 79 202 9.0 13.0 0.00 0.00 0.00 24
20260503011049 80 219 7.0 11.0 0.00 0.00 0.00 23
20260503010049 81 231 8.0 11.0 0.00 0.00 0.00 23
20260503005048 82 260 8.0 13.0 0.00 0.00 0.00 22
20260503004048 83 230 4.0 8.0 0.00 0.00 0.00 22
20260503003048 83 186 13.0 17.0 0.00 0.00 0.00 21
20260503002047 84 241 8.0 11.0 0.00 0.00 0.00 21
20260503001046 84 259 10.0 17.0 0.00 0.00 0.00 21
20260503000046 85 269 6.0 10.0 0.00 0.00 0.00 20
20260502235041 84 204 8.0 16.0 0.00 0.00 0.00 21
20260502234040 85 49 5.0 11.0 0.00 0.00 0.00 21
20260502233037 86 255 10.0 18.0 0.00 0.00 0.00 20
20260502232037 86 293 6.0 10.0 0.00 0.00 0.00 20
20260502231031 86 210 9.0 17.0 0.00 0.00 0.00 20
20260502230028 86 346 3.0 14.0 0.00 0.00 0.00 20
20260502225025 87 239 11.0 16.0 0.00 0.00 0.00 20
20260502224025 86 259 6.0 15.0 0.00 0.00 0.00 19
20260502223020 86 282 4.0 11.0 0.00 0.00 0.00 19
20260502222019 87 252 7.0 14.0 0.00 0.00 0.00 19
20260502221019 88 237 14.0 17.0 0.00 0.00 0.00 18
20260502220017 87 218 9.0 17.0 0.00 0.00 0.00 18
20260502215017 87 202 11.0 17.0 0.00 0.00 0.00 19
20260502214017 87 247 11.0 24.0 0.00 0.00 0.00 19
20260502213012 88 98 3.0 8.0 0.00 0.00 0.00 20
20260502212007 87 281 10.0 16.0 0.00 0.00 0.00 20
20260502211006 87 264 6.0 14.0 0.00 0.00 0.00 21
20260502210006 87 199 8.0 14.0 0.00 0.00 0.00 21
20260502205005 86 315 5.0 13.0 0.00 0.00 0.00 21
20260502204000 86 218 7.0 17.0 0.00 0.00 0.00 21
20260502202959 86 295 4.0 13.0 0.00 0.00 0.00 21
20260502201954 86 204 6.0 14.0 0.00 0.00 0.00 22
20260502200952 86 189 7.0 13.0 0.00 0.00 0.00 23